Printer-friendly version

IAU Minor Planet Center

Minor Planet Center

MPEC 2006-W85 : 2006 WV29

The following Minor Planet Electronic Circular may be linked-to from your own Web pages, but must not otherwise be redistributed electronically.

A form allowing access to any MPEC is at the bottom of this page.


Read MPEC 2006-W84 Read MPEC 2006-W86


M.P.E.C. 2006-W85                                Issued 2006 Nov. 24, 21:08 UT

     The Minor Planet Electronic Circulars contain information on unusual
         minor planets and routine data on comets.  They are published
   on behalf of Commission 20 of the International Astronomical Union by the
          Minor Planet Center, Smithsonian Astrophysical Observatory,
                          Cambridge, MA 02138, U.S.A.

             Prepared using the Tamkin Foundation Computer Network

                              MPC@CFA.HARVARD.EDU
          URL http://cfa-www.harvard.edu/iau/mpc.html  ISSN 1523-6714

                                   2006 WV29

Observations:
     K06W29V* C2006 11 23.27183 03 22 18.76 +08 03 32.7          19.6 V EW085G96
     K06W29V  C2006 11 23.27716 03 22 12.93 +08 02 27.0          19.6 V EW085G96
     K06W29V  C2006 11 23.28250 03 22 07.10 +08 01 20.3          20.1 V EW085G96
     K06W29V  C2006 11 23.28785 03 22 01.30 +08 00 14.4          19.5 V EW085G96
     K06W29V  C2006 11 23.31799 03 21 28.02 +07 53 54.1          19.3 V EW085G96
     K06W29V  C2006 11 23.32538 03 21 19.81 +07 52 20.8          19.3 V EW085G96
     K06W29V  C2006 11 23.33279 03 21 11.57 +07 50 46.0          19.2 V EW085G96
     K06W29V  C2006 11 23.34019 03 21 03.32 +07 49 10.1          19.2 V EW085G96
     K06W29V  C2006 11 23.34808 03 20 54.47 +07 47 28.5          19.3 V EW085G96
     K06W29V  C2006 11 23.35576 03 20 45.88 +07 45 48.4          19.4 V EW085G96
     K06W29V  C2006 11 23.36345 03 20 37.08 +07 44 06.7          19.8 V EW085G96
     K06W29V  C2006 11 23.37119 03 20 28.48 +07 42 26.6          19.2 V EW085G96
     K06W29V  C2006 11 23.38609 03 20 11.65 +07 39 08.4          19.7 V EW085G96
     K06W29V  C2006 11 23.39199 03 20 04.99 +07 37 49.8          19.3 V EW085G96
     K06W29V  C2006 11 23.39794 03 19 58.26 +07 36 30.6          19.7 V EW085G96
     K06W29V  C2006 11 23.40387 03 19 51.38 +07 35 09.0          20.4 V EW085G96
     K06W29V  C2006 11 23.91334 03 09 33.99 +05 19 51.2                 EW085J95
     K06W29V  C2006 11 23.91560 03 09 30.48 +05 19 09.3                 EW085J95
     K06W29V  C2006 11 23.91786 03 09 27.03 +05 18 27.9          19.6 R EW085J95
     K06W29V 5C2006 11 24.23465 03 00 49.12 +03 28 43.1          19.0 R EW085673
     K06W29V 5C2006 11 24.24039 03 00 37.88 +03 26 26.8                 EW085673
     K06W29V 5C2006 11 24.24676 03 00 25.35 +03 23 56.3                 EW085673
     K06W29V 5C2006 11 24.25051 03 00 17.82 +03 22 26.2                 EW085673
     K06W29V  C2006 11 24.26123 02 59 53.70 +03 18 20.3          20.0 R EW085854
     K06W29V  C2006 11 24.26389 02 59 48.41 +03 17 16.8          20.0 R EW085854
     K06W29V  C2006 11 24.26655 02 59 42.91 +03 16 11.8          20.1 R EW085854

Observer details:
673 Table Mountain Observatory, Wrightwood.  Observer J. Young.  0.61-m f/16
    Cassegrain + CCD.
854 Sabino Canyon Observatory, Tucson.  Observer J. E. McGaha.  0.36-m f/10.0
    Schmidt-Cassegrain + CCD.
G96 Mt. Lemmon Survey.  Observer E. C. Beshore.  Measurers E. C. Beshore,
    E. J. Christensen, G. J. Garradd, A. R. Gibbs, A. D. Grauer, R. E. Hill,
    R. A. Kowalski, S. M. Larson, R. H. McNaught.  1.5-m reflector + CCD.
J95 Great Shefford.  Observer P. Birtwhistle.  0.40-m f/6.0 Schmidt-Cassegrain
    + CCD.

Orbital elements:
2006 WV29                                                Earth MOID = 0.0005 AU
Epoch 2006 Sept. 22.0 TT = JDT 2454000.5                MPC
M 288.30070              (2000.0)            P               Q
n   0.60883236     Peri.   82.03775     -0.92269244     -0.38500517
a   1.3787036      Node    75.31636     +0.34496910     -0.84790615
e   0.5581767      Incl.    1.19893     +0.17214812     -0.36445327
P   1.62           H   26.5           G   0.15           U   8
Residuals in seconds of arc
061123 G96  0.8+  0.7+    061123 G96  0.6+  0.0     061123 J95  0.8+  0.7+
061123 G96  0.2+  0.7+    061123 G96  1.5-  1.1-    061124 673  0.9-  0.2+
061123 G96  0.0   0.0     061123 G96  0.4+  0.6+    061124 673  0.3+  0.2-
061123 G96  0.7+  0.6+    061123 G96  0.7+  0.1-    061124 673  1.8+  0.8+
061123 G96  0.3-  0.7-    061123 G96  1.0+  0.0     061124 673  0.8+  0.3+
061123 G96  0.3-  0.2+    061123 G96  1.3+  0.5+    061124 854  0.1+  0.5-
061123 G96  0.0   0.3+    061123 G96  0.9-  1.3-    061124 854  1.3+  0.2+
061123 G96  0.3+  0.3-    061123 J95  0.2+  0.3-    061124 854  0.5-  0.3-
061123 G96  0.1+  0.2+    061123 J95  0.0   0.1-

Ephemeris:
2006 WV29                a,e,i = 1.38, 0.56, 1                   q = 0.6091
Date    TT    R. A. (2000) Decl.     Delta      r     Elong.  Phase     V
2006 11 21    03 44.89   +12 41.4    0.0524   1.040   172.9     6.8    20.7
2006 11 22    03 37.61   +11 13.8    0.0430   1.030   170.8     8.8    20.3
2006 11 23    03 26.45   +08 57.0    0.0337   1.020   167.0    12.6    19.9
2006 11 24    03 07.34   +04 56.6    0.0247   1.011   160.3    19.2    19.5
2006 11 25    02 28.13   -03 27.5    0.0163   1.001   146.7    32.8    18.9
2006 11 26    00 40.93   -23 46.7    0.0101   0.991   113.1    66.4    18.9
2006 11 27    20 36.23   -40 40.1    0.0110   0.981    58.9   120.5    21.6
2006 11 28    18 21.88   -34 57.5    0.0179   0.971    31.1   148.3    25.8
2006 11 29    17 35.19   -30 15.9    0.0265   0.961    19.3   160.2    29.5
2006 11 30    17 13.51   -27 32.2    0.0356   0.952    12.9   166.6    33.2
2006 12 01    17 01.19   -25 49.6    0.0449   0.942     8.8   170.8

Gareth V. Williams           (C) Copyright 2006 MPC           M.P.E.C. 2006-W85

Read MPEC 2006-W84 Read MPEC 2006-W86


MPEC number:

Enter an
MPEC number in one of the following forms:
  • 1997-B01 (the full form)
  • J97B01 (the packed version of the full form)
  • B01 (the abbreviated form)

Valid HTML 4.01!